H1 CPF 2 NER 2020 12 18 9 353 01 glonass127 H2 1106403 9127 37869 2020 12 18 0 0 0 2020 12 21 23 45 0 900 1 1 0 0 0 1 H9 10 0 59201 0.00000 0 -15450184.068 -20249804.848 1191357.605 10 0 59201 900.00000 0 -15526805.219 -20117752.686 -2019700.563 10 0 59201 1800.00000 0 -15330734.137 -19688056.775 -5191446.677 10 0 59201 2700.00000 0 -14828548.214 -19005040.780 -8262088.065 10 0 59201 3600.00000 0 -13997825.738 -18120584.379 -11171733.920 10 0 59201 4500.00000 0 -12828339.905 -17091818.737 -13863579.147 10 0 59201 5400.00000 0 -11322747.883 -15978613.252 -16285030.949 10 0 59201 6300.00000 0 -9496742.786 -14840960.747 -18388754.415 10 0 59201 7200.00000 0 -7378659.671 -13736373.051 -20133614.853 10 0 59201 8100.00000 0 -5008550.153 -12717398.658 -21485496.967 10 0 59201 9000.00000 0 -2436763.090 -11829368.966 -22417983.604 10 0 59201 9900.00000 0 277909.703 -11108469.728 -22912879.845 10 0 59201 10800.00000 0 3070445.198 -10580220.186 -22960571.709 10 0 59201 11700.00000 0 5872065.464 -10258424.623 -22560212.287 10 0 59201 12600.00000 0 8612874.269 -10144640.551 -21719731.863 10 0 59201 13500.00000 0 11224543.128 -10228185.335 -20455672.362 10 0 59201 14400.00000 0 13642933.972 -10486679.785 -18792850.126 10 0 59201 15300.00000 0 15810548.530 -10887104.135 -16763854.649 10 0 59201 16200.00000 0 17678702.238 -11387319.872 -14408394.273 10 0 59201 17100.00000 0 19209332.580 -11937991.044 -11772502.914 10 0 59201 18000.00000 0 20376367.468 -12484821.830 -8907624.768 10 0 59201 18900.00000 0 21166598.375 -12971013.955 -5869596.207 10 0 59201 19800.00000 0 21580024.080 -13339838.641 -2717546.022 10 0 59201 20700.00000 0 21629653.364 -13537213.387 487263.342 10 0 59201 21600.00000 0 21340777.897 -13514174.286 3682630.184 10 0 59201 22500.00000 0 20749748.660 -13229139.567 6806619.856 10 0 59201 23400.00000 0 19902309.769 -12649869.473 9798759.363 10 0 59201 24300.00000 0 18851561.616 -11755040.799 12601197.532 10 0 59201 25200.00000 0 17655640.073 -10535370.924 15159809.145 10 0 59201 26100.00000 0 16375209.571 -8994245.215 17425222.917 10 0 59201 27000.00000 0 15070874.802 -7147822.285 19353755.161 10 0 59201 27900.00000 0 13800618.387 -5024613.024 20908233.050 10 0 59201 28800.00000 0 12617370.141 -2664550.795 22058693.526 10 0 59201 29700.00000 0 11566807.609 -117590.593 22782946.290 10 0 59201 30600.00000 0 10685477.747 2558106.186 23066991.669 10 0 59201 31500.00000 0 9999316.353 5298328.080 22905286.399 10 0 59201 32400.00000 0 9522625.641 8035224.198 22300852.848 10 0 59201 33300.00000 0 9257551.781 10699872.088 21265229.511 10 0 59201 34200.00000 0 9194084.107 13224899.121 19818262.996 10 0 59201 35100.00000 0 9310576.515 15547051.287 17987744.246 10 0 59201 36000.00000 0 9574770.360 17609604.857 15808894.153 10 0 59201 36900.00000 0 9945277.512 19364522.050 13323706.434 10 0 59201 37800.00000 0 10373463.037 20774261.635 10580158.193 10 0 59201 38700.00000 0 10805650.013 21813168.899 7631301.239 10 0 59201 39600.00000 0 11185554.920 22468386.018 4534249.955 10 0 59201 40500.00000 0 11456851.663 22740243.465 1349083.873 10 0 59201 41400.00000 0 11565755.951 22642114.385 -1862314.638 10 0 59201 42300.00000 0 11463520.023 22199736.350 -5037465.103 10 0 59201 43200.00000 0 11108730.622 21450027.554 -8114512.346 10 0 59201 44100.00000 0 10469310.721 20439446.177 -11033443.790 10 0 59201 45000.00000 0 9524137.620 19221961.528 -13737275.482 10 0 59201 45900.00000 0 8264205.945 17856722.565 -16173182.083 10 0 59201 46800.00000 0 6693283.392 16405522.777 -18293546.984 10 0 59201 47700.00000 0 4828028.782 14930169.486 -20056910.236 10 0 59201 48600.00000 0 2697565.062 13489869.959 -21428794.240 10 0 59201 49500.00000 0 342523.411 12138746.068 -22382389.773 10 0 59201 50400.00000 0 -2186402.506 10923583.701 -22899087.974 10 0 59201 51300.00000 0 -4830332.000 9881912.884 -22968847.361 10 0 59201 52200.00000 0 -7524423.969 9040500.096 -22590388.547 10 0 59201 53100.00000 0 -10200360.915 8414316.391 -21771213.001 10 0 59201 54000.00000 0 -12788985.814 8006024.165 -20527446.055 10 0 59201 54900.00000 0 -15222980.900 7806002.998 -18883507.947 10 0 59201 55800.00000 0 -17439475.716 7792911.749 -16871620.405 10 0 59201 56700.00000 0 -19382475.206 7934761.035 -14531159.580 10 0 59201 57600.00000 0 -21005006.558 8190448.435 -11907869.252 10 0 59201 58500.00000 0 -22270895.692 8511689.175 -9052951.118 10 0 59201 59400.00000 0 -23156100.442 8845258.423 -6022051.292 10 0 59201 60300.00000 0 -23649546.535 9135448.445 -2874164.027 10 0 59201 61200.00000 0 -23753433.626 9326635.261 329524.708 10 0 59201 62100.00000 0 -23483001.244 9365845.363 3526830.462 10 0 59201 63000.00000 0 -22865767.156 9205213.689 6655776.632 10 0 59201 63900.00000 0 -21940272.604 8804229.275 9655790.209 10 0 59201 64800.00000 0 -20754389.186 8131674.551 12468864.204 10 0 59201 65700.00000 0 -19363259.866 7167177.508 15040665.054 10 0 59201 66600.00000 0 -17826961.181 5902312.570 17321564.793 10 0 59201 67500.00000 0 -16207984.509 4341204.835 19267579.769 10 0 59201 68400.00000 0 -14568640.938 2500612.952 20841199.668 10 0 59201 69300.00000 0 -12968496.751 409487.238 22012092.817 10 0 59201 70200.00000 0 -11461944.687 -1891979.136 22757676.092 10 0 59201 71100.00000 0 -10096010.070 -4353767.679 23063540.076 10 0 59201 72000.00000 0 -8908481.206 -6917863.774 22923722.443 10 0 59201 72900.00000 0 -7926440.052 -9520424.002 22340824.932 10 0 59201 73800.00000 0 -7165252.993 -12094194.472 21325971.641 10 0 59201 74700.00000 0 -6628063.057 -14571082.596 19898608.741 10 0 59201 75600.00000 0 -6305804.626 -16884778.322 18086148.232 10 0 59201 76500.00000 0 -6177740.523 -18973318.288 15923460.774 10 0 59201 77400.00000 0 -6212500.090 -20781487.898 13452225.333 10 0 59201 78300.00000 0 -6369576.077 -22262962.286 10720145.940 10 0 59201 79200.00000 0 -6601218.940 -23382097.028 7780048.515 10 0 59201 80100.00000 0 -6854650.171 -24115293.094 4688873.400 10 0 59201 81000.00000 0 -7074502.264 -24451877.655 1506581.647 10 0 59201 81900.00000 0 -7205382.589 -24394462.097 -1705004.618 10 0 59201 82800.00000 0 -7194452.444 -23958760.237 -4883405.429 10 0 59201 83700.00000 0 -6993910.939 -23172872.543 -7966706.043 10 0 59201 84600.00000 0 -6563276.709 -22076064.875 -10894775.153 10 0 59201 85500.00000 0 -5871368.409 -20717092.109 -13610453.042 10 0 59202 0.00000 0 -4897897.404 -19152136.779 -16060684.831 10 0 59202 900.00000 0 -3634601.775 -17442449.665 -18197575.219 10 0 59202 1800.00000 0 -2085872.329 -15651792.428 -19979341.651 10 0 59202 2700.00000 0 -268839.233 -13843791.368 -21371146.539 10 0 59202 3600.00000 0 1787084.159 -12079314.507 -22345790.487 10 0 59202 4500.00000 0 4041184.073 -10413984.273 -22884252.089 10 0 59202 5400.00000 0 6442914.641 -8895931.289 -22976063.247 10 0 59202 6300.00000 0 8933790.697 -7563884.493 -22619512.464 10 0 59202 7200.00000 0 11449625.333 -6445678.170 -21821672.287 10 0 59202 8100.00000 0 13923017.953 -5557238.178 -20598250.882 10 0 59202 9000.00000 0 16285987.928 -4902088.890 -18973271.388 10 0 59202 9900.00000 0 18472642.773 -4471399.953 -16978586.339 10 0 59202 10800.00000 0 20421768.654 -4244568.585 -14653237.816 10 0 59202 11700.00000 0 22079234.605 -4190310.331 -12042677.147 10 0 59202 12600.00000 0 23400109.973 -4268209.524 -9197860.779 10 0 59202 13500.00000 0 24350407.290 -4430661.297 -6174241.401 10 0 59202 14400.00000 0 24908378.903 -4625120.667 -3030675.248 10 0 59202 15300.00000 0 25065314.874 -4796561.631 171731.896 10 0 59202 16200.00000 0 24825810.951 -4890040.886 3370816.616 10 0 59202 17100.00000 0 24207497.824 -4853256.955 6504564.075 10 0 59202 18000.00000 0 23240245.402 -4638996.461 9512304.788 10 0 59202 18900.00000 0 21964877.627 -4207364.618 12335879.187 10 0 59202 19800.00000 0 20431453.318 -3527706.702 14920748.209 10 0 59202 20700.00000 0 18697186.041 -2580140.643 17217029.633 10 0 59202 21600.00000 0 16824090.258 -1356637.329 19180441.806 10 0 59202 22500.00000 0 14876451.558 138395.882 20773138.452 10 0 59202 23400.00000 0 12918225.341 1888052.475 21964420.373 10 0 59202 24300.00000 0 11010470.573 3863387.778 22731312.278 10 0 59202 25200.00000 0 9208923.282 6024385.288 23058995.260 10 0 59202 26100.00000 0 7561808.543 8321389.651 22941087.766 10 0 59202 27000.00000 0 6107979.751 10696948.829 22379770.338 10 0 59202 27900.00000 0 4875460.745 13087991.562 21385751.714 10 0 59202 28800.00000 0 3880450.204 15428252.401 19978076.296 10 0 59202 29700.00000 0 3126829.072 17650846.367 18183775.463 10 0 59202 30600.00000 0 2606191.508 19690888.732 16037367.655 10 0 59202 31500.00000 0 2298398.670 21488052.768 13580214.833 10 0 59202 32400.00000 0 2172633.124 22988960.189 10859745.471 10 0 59202 33300.00000 0 2188910.887 24149304.958 7928556.911 10 0 59202 34200.00000 0 2299988.815 24935621.236 4843412.599 10 0 59202 35100.00000 0 2453588.007 25326620.330 1664152.134 10 0 59202 36000.00000 0 2594839.961 25314038.827 -1547465.642 10 0 59202 36900.00000 0 2668852.060 24902960.226 -4728964.292 10 0 59202 37800.00000 0 2623283.091 24111594.332 -7818372.439 10 0 59202 38700.00000 0 2410818.259 22970521.702 -10755442.798 10 0 59202 39600.00000 0 1991436.816 21521433.313 -13482842.396 10 0 59202 40500.00000 0 1334373.690 19815417.442 -15947289.131 10 0 59202 41400.00000 0 419689.234 17910865.411 -18100610.768 10 0 59202 42300.00000 0 -760622.106 15871084.561 -19900703.820 10 0 59202 43200.00000 0 -2202033.767 13761719.559 -21312372.058 10 0 59202 44100.00000 0 -3887427.225 11648091.479 -22308026.941 10 0 59202 45000.00000 0 -5787574.563 9592567.783 -22868235.245 10 0 59202 45900.00000 0 -7862144.355 7652074.737 -22982102.662 10 0 59202 46800.00000 0 -10061189.128 5875857.556 -22647485.619 10 0 59202 47700.00000 0 -12327051.887 4303582.728 -21871027.369 10 0 59202 48600.00000 0 -14596611.255 2963861.911 -20668018.111 10 0 59202 49500.00000 0 -16803770.370 1873258.463 -19062082.636 10 0 59202 50400.00000 0 -18882084.243 1035816.840 -17084702.625 10 0 59202 51300.00000 0 -20767414.679 443132.437 -14774584.093 10 0 59202 52200.00000 0 -22400500.938 74956.301 -12176883.623 10 0 59202 53100.00000 0 -23729338.116 -99693.619 -9342309.941 10 0 59202 54000.00000 0 -24711263.847 -120964.551 -6326119.724 10 0 59202 54900.00000 0 -25314666.675 -36213.322 -3187028.515 10 0 59202 55800.00000 0 -25520245.741 102251.839 13940.774 10 0 59202 56700.00000 0 -25321770.756 239634.722 3214648.488 10 0 59202 57600.00000 0 -24726312.483 321214.353 6353044.276 10 0 59202 58500.00000 0 -23753936.210 294899.084 9368364.882 10 0 59202 59400.00000 0 -22436873.167 113663.716 12202300.803 10 0 59202 60300.00000 0 -20818206.238 -262232.602 14800110.018 10 0 59202 61200.00000 0 -18950126.179 -863340.188 17111658.419 10 0 59202 62100.00000 0 -16891831.689 -1709503.425 19092368.474 10 0 59202 63000.00000 0 -14707160.664 -2808798.793 20704059.751 10 0 59202 63900.00000 0 -12462050.444 -4156970.059 21915666.963 10 0 59202 64800.00000 0 -10221931.094 -5737384.064 22703823.689 10 0 59202 65700.00000 0 -8049157.987 -7521509.391 23053302.158 10 0 59202 66600.00000 0 -6000588.063 -9469898.984 22957301.825 10 0 59202 67500.00000 0 -4125398.000 -11533637.602 22417581.904 10 0 59202 68400.00000 0 -2463232.752 -13656196.169 21444435.307 10 0 59202 69300.00000 0 -1042759.682 -15775618.470 20056503.887 10 0 59202 70200.00000 0 119312.750 -17826952.007 18280437.342 10 0 59202 71100.00000 0 1018711.432 -19744824.439 16150400.560 10 0 59202 72000.00000 0 1663550.144 -21466060.381 13707436.894 10 0 59202 72900.00000 0 2073757.615 -22932231.003 10998697.414 10 0 59202 73800.00000 0 2280005.062 -24092030.670 8076548.809 10 0 59202 74700.00000 0 2322177.026 -24903381.076 4997575.365 10 0 59202 75600.00000 0 2247448.817 -25335173.805 1821492.808 10 0 59202 76500.00000 0 2108050.854 -25368576.572 -1390005.857 10 0 59202 77400.00000 0 1958814.017 -24997846.101 -4574450.364 10 0 59202 78300.00000 0 1854600.238 -24230611.083 -7669815.427 10 0 59202 79200.00000 0 1847728.114 -23087610.905 -10615740.565 10 0 59202 80100.00000 0 1985504.276 -21601899.024 -13354722.338 10 0 59202 81000.00000 0 2307967.295 -19817542.906 -15833254.131 10 0 59202 81900.00000 0 2845942.276 -17787874.129 -18002889.493 10 0 59202 82800.00000 0 3619491.127 -15573361.951 -19821206.417 10 0 59202 83700.00000 0 4636826.717 -13239199.883 -21252652.170 10 0 59202 84600.00000 0 5893739.148 -10852707.329 -22269250.858 10 0 59202 85500.00000 0 7373560.202 -8480656.408 -22851158.827 10 0 59203 0.00000 0 9047668.774 -6186637.086 -22987056.515 10 0 59203 900.00000 0 10876517.098 -4028572.094 -22674368.794 10 0 59203 1800.00000 0 12811133.850 -2056485.955 -21919309.763 10 0 59203 2700.00000 0 14795041.825 -310622.675 -20736751.379 10 0 59203 3600.00000 0 16766507.871 1180011.082 -19149919.458 10 0 59203 4500.00000 0 18661030.117 2398616.228 -17189923.818 10 0 59203 5400.00000 0 20413956.910 3341046.794 -14895132.999 10 0 59203 6300.00000 0 21963126.677 4015714.375 -12310407.034 10 0 59203 7200.00000 0 23251417.233 4442958.410 -9486204.689 10 0 59203 8100.00000 0 24229097.348 4653911.954 -6477583.988 10 0 59203 9000.00000 0 24855882.165 4688913.865 -3343116.797 10 0 59203 9900.00000 0 25102606.968 4595537.244 -143739.895 10 0 59203 10800.00000 0 24952450.403 4426319.787 3058434.233 10 0 59203 11700.00000 0 24401657.442 4236293.726 6201323.181 10 0 59203 12600.00000 0 23459733.691 4080420.786 9224073.296 10 0 59203 13500.00000 0 22149104.756 4011040.840 12068228.353 10 0 59203 14400.00000 0 20504256.587 4075441.670 14678846.338 10 0 59203 15300.00000 0 18570394.007 4313651.420 17005543.920 10 0 59203 16200.00000 0 16401674.107 4756545.561 19003450.036 10 0 59203 17100.00000 0 14059088.078 5424346.726 20634052.096 10 0 59203 18000.00000 0 11608078.994 6325579.244 21865920.377 10 0 59203 18900.00000 0 9115993.112 7456521.508 22675298.608 10 0 59203 19800.00000 0 6649468.543 8801178.969 23046551.039 10 0 59203 20700.00000 0 4271867.346 10331779.367 22972458.600 10 0 59203 21600.00000 0 2040855.044 12009770.828 22454359.188 10 0 59203 22500.00000 0 6225.516 13787283.081 21502129.429 10 0 59203 23400.00000 0 -1791940.489 15608993.229 20134007.711 10 0 59203 24300.00000 0 -3324708.333 17414320.947 18376260.670 10 0 59203 25200.00000 0 -4575255.358 19139864.225 16262697.851 10 0 59203 26100.00000 0 -5539329.646 20721976.315 13834041.858 10 0 59203 27000.00000 0 -6225182.247 22099378.101 11137163.918 10 0 59203 27900.00000 0 -6652974.974 23215697.723 8224197.395 10 0 59203 28800.00000 0 -6853687.462 24021831.318 5151544.555 10 0 59203 29700.00000 0 -6867568.370 24478025.260 1978794.267 10 0 59203 30600.00000 0 -6742195.013 24555591.046 -1232429.373 10 0 59203 31500.00000 0 -6530222.702 24238178.625 -4419665.358 10 0 59203 32400.00000 0 -6286918.962 23522552.147 -7520837.523 10 0 59203 33300.00000 0 -6067587.518 22418832.809 -10475475.095 10 0 59203 34200.00000 0 -5924992.433 20950196.071 -13225906.883 10 0 59203 35100.00000 0 -5906893.284 19152033.801 -15718404.223 10 0 59203 36000.00000 0 -6053798.039 17070614.973 -17904248.627 10 0 59203 36900.00000 0 -6397031.251 14761300.255 -19740701.446 10 0 59203 37800.00000 0 -6957201.769 12286385.173 -21191855.024 10 0 59203 38700.00000 0 -7743137.093 9712662.572 -22229347.388 10 0 59203 39600.00000 0 -8751331.260 7108807.340 -22832925.415 10 0 59203 40500.00000 0 -9965930.987 4542693.898 -22990844.910 10 0 59203 41400.00000 0 -11359261.518 2078759.633 -22700099.485 10 0 59203 42300.00000 0 -12892870.206 -224474.522 -21966473.916 10 0 59203 43200.00000 0 -14519043.620 -2316622.385 -20804421.385 10 0 59203 44100.00000 0 -16182733.605 -4157297.091 -19236767.725 10 0 59203 45000.00000 0 -17823810.170 -5717544.715 -17294249.476 10 0 59203 45900.00000 0 -19379545.300 -6980788.526 -15014895.908 10 0 59203 46800.00000 0 -20787222.082 -7943246.482 -12443268.392 10 0 59203 47700.00000 0 -21986758.437 -8613807.162 -9629573.379 10 0 59203 48600.00000 0 -22923234.547 -9013372.453 -6628667.704 10 0 59203 49500.00000 0 -23549217.534 -9173697.910 -3498976.889 10 0 59203 50400.00000 0 -23826785.983 -9135782.724 -301348.809 10 0 59203 51300.00000 0 -23729170.071 -8947879.996 2902134.064 10 0 59203 52200.00000 0 -23241939.647 -8663213.564 6049360.164 10 0 59203 53100.00000 0 -22363691.939 -8337499.268 9079388.368 10 0 59203 54000.00000 0 -21106211.704 -8026376.132 11933618.616 10 0 59203 54900.00000 0 -19494098.633 -7782855.887 14556911.705 10 0 59203 55800.00000 0 -17563878.870 -7654897.741 16898637.705 10 0 59203 56700.00000 0 -15362638.486 -7683209.461 18913634.395 10 0 59203 57600.00000 0 -12946235.964 -7899365.849 20563059.062 10 0 59203 58500.00000 0 -10377167.566 -8324322.269 21815119.181 10 0 59203 59400.00000 0 -7722173.016 -8967384.377 22645669.832 10 0 59203 60300.00000 0 -5049678.955 -9825676.520 23038668.043 10 0 59203 61200.00000 0 -2427183.934 -10884130.924 22986476.543 10 0 59203 62100.00000 0 81309.267 -12115998.758 22490011.833 10 0 59203 63000.00000 0 2417710.240 -13483863.039 21558733.826 10 0 59203 63900.00000 0 4532008.497 -14941113.008 20210476.671 10 0 59203 64800.00000 0 6384104.045 -16433820.748 18471122.874 10 0 59203 65700.00000 0 7945226.262 -17902944.184 16374125.277 10 0 59203 66600.00000 0 9198882.627 -19286766.790 13959884.083 10 0 59203 67500.00000 0 10141297.820 -20523473.944 11274988.729 10 0 59203 68400.00000 0 10781324.288 -21553759.483 8371337.035 10 0 59203 69300.00000 0 11139827.032 -22323353.707 5305146.782 10 0 59203 70200.00000 0 11248567.351 -22785366.491 2135877.314 10 0 59203 71100.00000 0 11148631.387 -22902345.860 -1074918.973 10 0 59203 72000.00000 0 10888468.879 -22647963.536 -4264793.209 10 0 59203 72900.00000 0 10521624.567 -22008254.059 -7371621.237 10 0 59203 73800.00000 0 10104258.348 -20982352.478 -10334824.849 10 0 59203 74700.00000 0 9692559.933 -19582696.769 -13096567.869 10 0 59203 75600.00000 0 9340168.863 -17834683.806 -15602902.222 10 0 59203 76500.00000 0 9095711.017 -15775791.206 -17804839.844 10 0 59203 77400.00000 0 9000558.069 -13454200.417 -19659327.663 10 0 59203 78300.00000 0 9086907.003 -10926977.952 -21130105.022 10 0 59203 79200.00000 0 9376263.064 -8257890.821 -22188425.438 10 0 59203 80100.00000 0 9878392.142 -5514948.035 -22813627.501 10 0 59203 81000.00000 0 10590788.219 -2767771.811 -22993543.163 10 0 59203 81900.00000 0 11498679.241 -84909.248 -22724735.147 10 0 59203 82800.00000 0 12575571.393 2468802.201 -22012558.932 10 0 59203 83700.00000 0 13784308.557 4834704.830 -20871048.574 10 0 59203 84600.00000 0 15078601.517 6962523.026 -19322629.267 10 0 59203 85500.00000 0 16404961.302 8812206.160 -17397663.288 10 0 59204 0.00000 0 17704953.872 10355336.116 -15133839.387 10 0 59204 900.00000 0 18917679.700 11576042.214 -12575418.524 10 0 59204 1800.00000 0 19982372.770 12471388.005 -9772352.899 10 0 59204 2700.00000 0 20841007.892 13051215.627 -6779295.822 10 0 59204 3600.00000 0 21440806.780 13337458.701 -3654523.835 10 0 59204 4500.00000 0 21736536.542 13362954.882 -458793.023 10 0 59204 5400.00000 0 21692504.590 13169811.575 2745847.207 10 0 59204 6300.00000 0 21284166.785 12807396.231 5897259.255 10 0 59204 7200.00000 0 20499282.459 12330037.898 8934417.629 10 0 59204 8100.00000 0 19338569.215 11794538.274 11798581.438 10 0 59204 9000.00000 0 17815831.417 11257597.619 14434417.132 10 0 59204 9900.00000 0 15957558.229 10773263.709 16791050.829 10 0 59204 10800.00000 0 13802008.757 10390510.284 18823031.548 10 0 59204 11700.00000 0 11397822.659 10151045.440 20491188.605 10 0 59204 12600.00000 0 8802213.702 10087440.428 21763368.536 10 0 59204 13500.00000 0 6078820.201 10221655.802 22615039.323 10 0 59204 14400.00000 0 3295299.814 10564025.416 23029751.965 10 0 59204 15300.00000 0 520766.172 11112740.077 22999451.775 10 0 59204 16200.00000 0 -2176829.024 11853852.336 22524634.198 10 0 59204 17100.00000 0 -4733262.770 12761802.894 21614342.272 10 0 59204 18000.00000 0 -7090452.512 13800447.898 20286005.243 10 0 59204 18900.00000 0 -9198615.114 14924546.087 18565120.317 10 0 59204 19800.00000 0 -11018085.142 16081645.808 16484781.990 10 0 59204 20700.00000 0 -12520717.747 17214295.232 14085066.020 10 0 59204 21600.00000 0 -13690818.093 18262485.299 11412277.684 10 0 59204 22500.00000 0 -14525558.201 19166224.602 8518076.647 10 0 59204 23400.00000 0 -15034862.866 19868139.028 5458493.428 10 0 59204 24300.00000 0 -15240768.324 20315987.055 2292854.956 10 0 59204 25200.00000 0 -15176279.365 20464984.052 -917361.023 10 0 59204 26100.00000 0 -14883771.891 20279836.160 -4109720.734 10 0 59204 27000.00000 0 -14413007.603 19736395.730 -7222054.972 10 0 59204 27900.00000 0 -13818844.398 18822865.785 -10193680.946 10 0 59204 28800.00000 0 -13158739.679 17540499.781 -12966600.230 10 0 59204 29700.00000 0 -12490153.135 15903764.253 -15486647.870 10 0 59204 30600.00000 0 -11867960.403 13939954.865 -17704568.518 10 0 59204 31500.00000 0 -11341988.865 11688279.947 -19576996.690 10 0 59204 32400.00000 0 -10954781.898 9198448.491 -21067320.433 10 0 59204 33300.00000 0 -10739688.064 6528821.056 -22146410.145 10 0 59204 34200.00000 0 -10719357.812 3744200.932 -22793197.199 10 0 59204 35100.00000 0 -10904712.517 913358.374 -22995090.430 10 0 59204 36000.00000 0 -11294430.229 -1893607.923 -22748222.048 10 0 59204 36900.00000 0 -11874970.100 -4607960.934 -22057518.242 10 0 59204 37800.00000 0 -12621134.078 -7164953.925 -20936593.546 10 0 59204 38700.00000 0 -13497141.348 -9506287.424 -19407471.729 10 0 59204 39600.00000 0 -14458168.896 -11582291.836 -17500139.626 10 0 59204 40500.00000 0 -15452291.627 -13353745.176 -15251943.832 10 0 59204 41400.00000 0 -16422738.587 -14793251.236 -12706843.275 10 0 59204 42300.00000 0 -17310368.421 -15886122.319 -9914533.720 10 0 59204 43200.00000 0 -18056258.325 -16630732.138 -6929462.691 10 0 59204 44100.00000 0 -18604296.213 -17038326.992 -3809755.324 10 0 59204 45000.00000 0 -18903666.259 -17132306.250 -616073.367 10 0 59204 45900.00000 0 -18911122.956 -16947005.549 2589569.499 10 0 59204 46800.00000 0 -18592958.365 -16526036.763 5745012.401 10 0 59204 47700.00000 0 -17926580.596 -15920256.972 8789148.315 10 0 59204 48600.00000 0 -16901638.329 -15185453.667 11663098.406 10 0 59204 49500.00000 0 -15520645.361 -14379844.563 14311337.627 10 0 59204 50400.00000 0 -13799080.201 -13561497.327 16682750.900 10 0 59204 51300.00000 0 -11764957.336 -12785777.101 18731601.059 10 0 59204 52200.00000 0 -9457888.384 -12102927.788 20418391.749 10 0 59204 53100.00000 0 -6927672.049 -11555886.991 21710610.528 10 0 59204 54000.00000 0 -4232470.526 -11178424.386 22583339.845 10 0 59204 54900.00000 0 -1436646.479 -10993679.838 23019725.813 10 0 59204 55800.00000 0 1391651.824 -11013161.094 23011297.056 10 0 59204 56700.00000 0 4183059.753 -11236242.222 22558128.281 10 0 59204 57600.00000 0 6869616.288 -11650183.673 21668845.578 10 0 59204 58500.00000 0 9387328.865 -12230673.742 20360472.854 10 0 59204 59400.00000 0 11678579.222 -12942870.075 18658121.234 10 0 59204 60300.00000 0 13694272.416 -13742899.397 16594525.740 10 0 59204 61200.00000 0 15395640.902 -14579754.691 14209436.197 10 0 59204 62100.00000 0 16755629.232 -15397512.330 11548871.877 10 0 59204 63000.00000 0 17759801.481 -16137777.837 8664252.066 10 0 59204 63900.00000 0 18406732.712 -16742258.738 5611417.457 10 0 59204 64800.00000 0 18707866.942 -17155356.707 2449559.701 10 0 59204 65700.00000 0 18686846.221 -17326669.510 -759921.187 10 0 59204 66600.00000 0 18378337.653 -17213296.044 -3954609.743 10 0 59204 67500.00000 0 17826406.708 -16781845.262 -7072294.943 10 0 59204 68400.00000 0 17082504.796 -16010061.632 -10052192.578 10 0 59204 69300.00000 0 16203155.982 -14887995.575 -12836144.974 10 0 59204 70200.00000 0 15247441.103 -13418666.454 -15369773.107 10 0 59204 71100.00000 0 14274386.710 -11618187.186 -17603556.886 10 0 59204 72000.00000 0 13340370.698 -9515342.710 -19493820.674 10 0 59204 72900.00000 0 12496656.076 -7150638.028 -21003603.144 10 0 59204 73800.00000 0 11787158.864 -4574854.380 -22103393.142 10 0 59204 74700.00000 0 11246546.097 -1847173.509 -22771715.994 10 0 59204 75600.00000 0 10898745.526 967051.558 -22995558.187 10 0 59204 76500.00000 0 10755930.730 3798785.566 -22770621.784 10 0 59204 77400.00000 0 10818024.721 6577955.102 -22101403.673 10 0 59204 78300.00000 0 11072742.581 9236136.505 -21001098.495 10 0 59204 79200.00000 0 11496170.401 11709174.702 -19491327.873 10 0 59204 80100.00000 0 12053854.657 13939623.229 -17601702.170 10 0 59204 81000.00000 0 12702354.275 15878903.667 -15369224.529 10 0 59204 81900.00000 0 13391187.910 17489095.036 -12837550.065 10 0 59204 82800.00000 0 14065092.263 18744279.598 -10056116.173 10 0 59204 83700.00000 0 14666494.297 19631390.789 -7079162.281 10 0 59204 84600.00000 0 15138091.461 20150530.284 -3964659.527 10 0 59204 85500.00000 0 15425429.997 20314743.722 -773172.505 99